ARIANE 42P DEB, 44512

Orbit data source: Space-Track

ARIANE 42P DEB, 44512 is space debris in LEO originally from a launch on Mon, 10 Aug 1992 UTC launched from the French Guiana (FRGUI). Debris objects in space refer to the collection of defunct objects orbiting the Earth. Examples of debris include non-operational satellites, rocket bodies, and fragments generated from explosions, collisions, or faulty payload assembly.

Loading next visibility...
Identifier
44512, 1992-052K
Orbit
LEO
Last TLE update
21 hours ago
Origin
Manufacturer
ArianeGroup
Mission
Spacecraft
Bus & Motor
Unknown
Mass
Unknown
Launch date (UTC)
1992-08-10 (33 years ago)
Launch vehicle
Unknown
Launch site
French Guiana (FRGUI)
Object type
Payload
Rocket body
Debris
Shape & HBR
Unknown
Radar Cross Section
Small (<0.1 m²)

Expand to show TLE details & history

TLE from 21 hours ago
0 ARIANE 42P DEB
1 44512U 92052K   25132.73487891  .00001333  00000-0  49421-2 0  9996
2 44512  65.9129 350.6054 0252797 134.8502 227.3359 12.85585614268875
Epoch: 2025-05-12T17:38Z
Definitive object data (Epoch: 2025-05-12T17:38:13.537Z)
Latitude
-0.00005°
Longitude
-144.69473°
Altitude
1,455.477 km
Speed
7.072 km/s
True Right ascension
23h 22m 25s
True Declination
0° 00' 00"
Sunlit
Object was in daylight at TLE epoch
Visualization TLE readout
Latitude
27.00616°
Longitude
20.33351°
Altitude
1,133.775 km
Speed
7.377 km/s
Apparent Right ascension
10h 47m 45s
Apparent Declination
-3° 22' 13"
Sunlit
Object is in daylight
Visualization observer readout
Local Sidereal Time
23:22:17
Azimuth
14.294° NNE
Elevation
-52.627°
Doppler factor
1
Orbital elements
Apogee altitude
1,512.214 km
Perigee altitude
1,123.118 km
Semi-major axis
7,695.803 km
Eccentricity
0.0252797
Inclination
65.9129°
RAAN
350.6054°
Arg. of periapsis
134.8502°
True anomaly
225.2509°
Mean anomaly
227.3359°
Eccentric anomaly
226.28893°
Mean motion
3.21486 °/min
BSTAR
0.0049421
Orbital period
111.98 mins
Loading maneuver chart data...
Loading SW <> Apogee altitude chart data...
Loading historical data...
Loading historical data...
Loading historical data...
Loading historical data...
Loading historical data...
Loading historical data...
Loading historical data...

ARIANE 42P DEB Visibility forecast

Observer location: undefined°, undefined°

Span
Click to sort rows by Start time (UTC) header in descending order
Start Az.
Max El. time (UTC)
Max El. Az.
Max El.
End time (UTC)
End Az.
16 mins2025-05-13 16:08:17.446Z208.299° SW2025-05-13 16:16:17.446Z215.755° SW44.844°2025-05-13 16:24:17.446Z30.443° NE
10 mins2025-05-13 18:08:17.446Z277.124° WNW2025-05-13 18:13:17.446Z322.418° NNW21.548°2025-05-13 18:18:17.446Z7.294° NNE
11 mins2025-05-14 00:04:17.446Z346.452° N2025-05-14 00:10:17.446Z58.012° ENE31.044°2025-05-14 00:15:17.446Z111.276° ESE
11 mins2025-05-14 02:00:17.446Z311.244° NW2025-05-14 02:05:17.446Z247.02° WSW34.601°2025-05-14 02:11:17.446Z181.249° SSW
11 mins2025-05-14 14:33:17.446Z156.069° SSE2025-05-14 14:38:17.446Z113.254° SE25.545°2025-05-14 14:44:17.446Z56.441° ENE
|